When you browse on this site, cookies collect data to enhance your experience and personalize the content and advertising you see.
Visit our Privacy Policy to learn more. By continuing to use the site, you agree to this use of cookies and data.
  • Em Portugal
  • Lista de países
  • Para 7 dias
  • Temperatura da água
  • Mapa do tempo
  • Widgets de tempo
  • user-avatar
    Iniciar Sessão

    Previsão horária em Razgrad

    Hoje, 28 Março, Sábado

    Tempo Temperatura Precipitação Vento Pressão Humidade
    00:00 +7°C° 0 mm 1 m/s 741 mmHg 74%
    01:00 +6°C° 0 mm 1 m/s 740 mmHg 74%
    02:00 +6°C° 0 mm 1 m/s 740 mmHg 75%
    03:00 +6°C° 0 mm 1 m/s 740 mmHg 76%
    04:00 +5°C° 0 mm 1 m/s 740 mmHg 78%
    05:00 +5°C° 0 mm 1 m/s 740 mmHg 79%
    06:00 +5°C° 0 mm 2 m/s 740 mmHg 78%
    07:00 +5°C° 0 mm 2 m/s 740 mmHg 77%
    08:00 +6°C° 0 mm 2 m/s 740 mmHg 76%
    09:00 +8°C° 0 mm 2 m/s 740 mmHg 71%
    10:00 +9°C° 0 mm 3 m/s 739 mmHg 66%
    11:00 +11°C° 0 mm 3 m/s 739 mmHg 61%
    12:00 +12°C° 0 mm 4 m/s 739 mmHg 58%
    13:00 +13°C° 0 mm 4 m/s 738 mmHg 55%
    14:00 +14°C° 0 mm 4 m/s 738 mmHg 52%
    15:00 +13°C° 0 mm 4 m/s 738 mmHg 53%
    16:00 +13°C° 0 mm 3 m/s 738 mmHg 55%
    17:00 +13°C° 0 mm 3 m/s 737 mmHg 56%
    18:00 +12°C° 0 mm 3 m/s 737 mmHg 59%
    19:00 +12°C° 0 mm 2 m/s 737 mmHg 62%
    20:00 +10°C° 0 mm 2 m/s 737 mmHg 65%
    21:00 +10°C° 0 mm 2 m/s 737 mmHg 67%
    22:00 +9°C° 0 mm 2 m/s 737 mmHg 68%
    23:00 +9°C° 0 mm 2 m/s 737 mmHg 70%

    Amanhã, 29 Março, Domingo

    Tempo Temperatura Precipitação Vento Pressão Humidade
    00:00 +9°C° 0 mm 2 m/s 737 mmHg 72%
    01:00 +8°C° 0 mm 2 m/s 737 mmHg 73%
    02:00 +8°C° 0 mm 2 m/s 737 mmHg 75%
    03:00 +8°C° 0 mm 2 m/s 737 mmHg 76%
    04:00 +7°C° 0 mm 2 m/s 736 mmHg 78%
    05:00 +7°C° 0 mm 2 m/s 736 mmHg 79%
    06:00 +7°C° 0 mm 2 m/s 736 mmHg 77%
    07:00 +8°C° 0 mm 3 m/s 736 mmHg 75%
    08:00 +9°C° 0 mm 3 m/s 736 mmHg 73%
    09:00 +10°C° 0 mm 4 m/s 736 mmHg 69%
    10:00 +12°C° 0 mm 4 m/s 736 mmHg 64%
    11:00 +13°C° 0 mm 5 m/s 736 mmHg 60%
    12:00 +14°C° 0.1 mm 5 m/s 736 mmHg 57%
    13:00 +14°C° 0.1 mm 5 m/s 736 mmHg 55%
    14:00 +15°C° 0.1 mm 5 m/s 735 mmHg 52%
    15:00 +15°C° 0.1 mm 4 m/s 735 mmHg 54%
    16:00 +14°C° 0.1 mm 4 m/s 735 mmHg 55%
    17:00 +14°C° 0.1 mm 3 m/s 735 mmHg 57%
    18:00 +13°C° 0 mm 3 m/s 735 mmHg 61%
    19:00 +13°C° 0 mm 2 m/s 736 mmHg 65%
    20:00 +11°C° 0 mm 1 m/s 736 mmHg 70%
    21:00 +11°C° 0 mm 1 m/s 736 mmHg 72%
    22:00 +9°C° 0 mm 2 m/s 736 mmHg 74%
    23:00 +9°C° 0 mm 2 m/s 737 mmHg 76%

    Depois de amanhã, 30 Março, Segunda-feira

    Tempo Temperatura Precipitação Vento Pressão Humidade
    00:00 +8°C° 0 mm 2 m/s 737 mmHg 77%
    01:00 +8°C° 0 mm 2 m/s 736 mmHg 79%
    02:00 +8°C° 0 mm 2 m/s 736 mmHg 80%
    03:00 +7°C° 0 mm 2 m/s 737 mmHg 80%
    04:00 +7°C° 0 mm 2 m/s 737 mmHg 80%
    05:00 +8°C° 0 mm 1 m/s 737 mmHg 80%
    06:00 +9°C° 0 mm 1 m/s 737 mmHg 76%
    07:00 +10°C° 0 mm 1 m/s 737 mmHg 72%
    08:00 +12°C° 0 mm 1 m/s 737 mmHg 68%
    09:00 +13°C° 0 mm 2 m/s 738 mmHg 62%
    10:00 +15°C° 0 mm 2 m/s 738 mmHg 56%
    11:00 +16°C° 0 mm 3 m/s 738 mmHg 49%
    12:00 +17°C° 0 mm 3 m/s 738 mmHg 48%
    13:00 +17°C° 0 mm 2 m/s 737 mmHg 46%
    14:00 +18°C° 0 mm 2 m/s 737 mmHg 45%
    15:00 +18°C° 0.2 mm 1 m/s 737 mmHg 46%
    16:00 +18°C° 0.2 mm 1 m/s 737 mmHg 48%
    17:00 +18°C° 0.2 mm 1 m/s 736 mmHg 49%
    18:00 +15°C° 0.1 mm 1 m/s 737 mmHg 56%
    19:00 +14°C° 0.1 mm 1 m/s 737 mmHg 62%
    20:00 +12°C° 0.1 mm 1 m/s 737 mmHg 68%
    21:00 +12°C° 0 mm 1 m/s 737 mmHg 69%
    22:00 +12°C° 0 mm 1 m/s 737 mmHg 70%
    23:00 +11°C° 0 mm 1 m/s 737 mmHg 71%

    31 Março, Terça-feira

    Tempo Temperatura Precipitação Vento Pressão Humidade
    00:00 +11°C° 0 mm 1 m/s 737 mmHg 74%
    01:00 +10°C° 0 mm 1 m/s 737 mmHg 76%
    02:00 +9°C° 0 mm 0 m/s 737 mmHg 78%
    03:00 +9°C° 0 mm 1 m/s 737 mmHg 81%
    04:00 +9°C° 0 mm 1 m/s 738 mmHg 84%
    05:00 +8°C° 0 mm 1 m/s 738 mmHg 88%
    06:00 +8°C° 0 mm 2 m/s 738 mmHg 88%
    07:00 +8°C° 0 mm 2 m/s 738 mmHg 88%
    08:00 +8°C° 0 mm 2 m/s 738 mmHg 88%
    09:00 +8°C° 0 mm 2 m/s 738 mmHg 87%
    10:00 +8°C° 0 mm 2 m/s 739 mmHg 86%
    11:00 +8°C° 0 mm 2 m/s 739 mmHg 85%
    12:00 +8°C° 0.1 mm 3 m/s 739 mmHg 85%
    13:00 +8°C° 0.1 mm 3 m/s 739 mmHg 85%
    14:00 +7°C° 0.1 mm 3 m/s 739 mmHg 85%
    15:00 +7°C° 0.1 mm 3 m/s 739 mmHg 86%
    16:00 +5°C° 0.1 mm 3 m/s 739 mmHg 87%
    17:00 +5°C° 0.1 mm 3 m/s 739 mmHg 87%
    18:00 +5°C° 0.1 mm 2 m/s 740 mmHg 89%
    19:00 +5°C° 0.1 mm 2 m/s 740 mmHg 90%
    20:00 +5°C° 0.1 mm 2 m/s 741 mmHg 91%
    21:00 +5°C° 0.3 mm 2 m/s 741 mmHg 92%
    22:00 +4°C° 0.3 mm 2 m/s 741 mmHg 93%
    23:00 +4°C° 0.3 mm 2 m/s 741 mmHg 94%

    1 Abril, Quarta-feira

    Tempo Temperatura Precipitação Vento Pressão Humidade
    00:00 +4°C° 0.4 mm 2 m/s 741 mmHg 95%
    01:00 +3°C° 0.4 mm 3 m/s 741 mmHg 95%
    02:00 +2°C° 0.4 mm 3 m/s 741 mmHg 95%
    03:00 +2°C° 0.3 mm 3 m/s 741 mmHg 95%
    04:00 +1°C° 0.3 mm 3 m/s 741 mmHg 95%
    05:00 0°C° 0.3 mm 4 m/s 741 mmHg 95%
    06:00 +1°C° 0.5 mm 3 m/s 741 mmHg 95%
    07:00 0°C° 0.5 mm 3 m/s 741 mmHg 95%
    08:00 0°C° 0.5 mm 3 m/s 741 mmHg 96%
    09:00 0°C° 0.6 mm 3 m/s 741 mmHg 96%
    10:00 0°C° 0.6 mm 3 m/s 741 mmHg 96%
    11:00 +1°C° 0.6 mm 2 m/s 742 mmHg 96%
    12:00 +2°C° 0.6 mm 2 m/s 742 mmHg 96%
    13:00 +2°C° 0.6 mm 2 m/s 742 mmHg 96%
    14:00 +2°C° 0.6 mm 2 m/s 742 mmHg 97%
    15:00 +2°C° 0.9 mm 2 m/s 742 mmHg 97%
    16:00 +2°C° 0.9 mm 2 m/s 741 mmHg 97%
    17:00 +2°C° 0.9 mm 2 m/s 741 mmHg 98%
    18:00 +2°C° 0.7 mm 2 m/s 742 mmHg 98%
    19:00 +2°C° 0.7 mm 2 m/s 742 mmHg 98%
    20:00 +2°C° 0.7 mm 2 m/s 742 mmHg 98%
    21:00 +2°C° 0.4 mm 2 m/s 742 mmHg 98%
    22:00 +1°C° 0.4 mm 3 m/s 743 mmHg 97%
    23:00 +1°C° 0.4 mm 3 m/s 743 mmHg 97%

    2 Abril, Quinta-feira

    Tempo Temperatura Precipitação Vento Pressão Humidade
    00:00 +1°C° 0.1 mm 3 m/s 743 mmHg 96%
    01:00 +1°C° 0.1 mm 3 m/s 743 mmHg 95%
    02:00 0°C° 0.1 mm 3 m/s 743 mmHg 95%
    03:00 0°C° 0 mm 3 m/s 743 mmHg 94%
    04:00 -1°C° 0 mm 2 m/s 743 mmHg 94%
    05:00 -1°C° 0 mm 2 m/s 743 mmHg 93%
    06:00 -1°C° 0 mm 2 m/s 743 mmHg 90%
    07:00 +1°C° 0 mm 2 m/s 743 mmHg 87%
    08:00 +1°C° 0 mm 2 m/s 743 mmHg 84%
    09:00 +2°C° 0 mm 2 m/s 743 mmHg 82%
    10:00 +3°C° 0 mm 2 m/s 743 mmHg 80%
    11:00 +4°C° 0 mm 2 m/s 743 mmHg 78%
    12:00 +5°C° 0 mm 2 m/s 743 mmHg 77%
    13:00 +5°C° 0 mm 2 m/s 743 mmHg 77%
    14:00 +6°C° 0 mm 2 m/s 743 mmHg 76%
    15:00 +6°C° 0 mm 2 m/s 742 mmHg 76%
    16:00 +7°C° 0 mm 1 m/s 742 mmHg 75%
    17:00 +7°C° 0 mm 1 m/s 742 mmHg 75%
    18:00 +6°C° 0 mm 1 m/s 742 mmHg 79%
    19:00 +5°C° 0 mm 1 m/s 742 mmHg 83%
    20:00 +3°C° 0 mm 1 m/s 742 mmHg 88%
    21:00 +3°C° 0 mm 1 m/s 742 mmHg 87%
    22:00 +3°C° 0 mm 1 m/s 743 mmHg 86%
    23:00 +3°C° 0 mm 1 m/s 743 mmHg 86%
    Mostrar mais